Jackson, MS

10:48 PM CST on November 24, 2017 (GMT -0600)
Jackson-Evers International

Weather History for KJAN - December, 2013

Change the Weather History Date:

Monday, December 2, 2013

  Actual Average Record
Temperature  
Mean Temperature 63 °F 51 °F  
Max Temperature 73 °F 62 °F 83 °F (1982)
Min Temperature 53 °F 40 °F 20 °F (1960)
Degree Days  
Heating Degree Days 2 15  
Month to date heating degree days 17 29  
Since 1 July heating degree days 479 437  
Cooling Degree Days 0 0  
Month to date cooling degree days 0 0  
Year to date cooling degree days 2347 2253  
Growing Degree Days 13 (Base 50)    
Moisture  
Dew Point 54 °F    
Average Humidity 79    
Maximum Humidity 93    
Minimum Humidity 64    
Precipitation  
Precipitation T in 0.19 in 2.68 in (1991)
Month to date precipitation T 0.37  
Year to date precipitation 59.76 49.36  
Sea Level Pressure  
Sea Level Pressure 29.81 in    
Wind  
Wind Speed 6 mph (SSW)    
Max Wind Speed 18 mph    
Max Gust Speed 23 mph    
Visibility 8 miles    
Events Fog    
T = Trace of Precipitation, MM = Missing Value Source: NWS Daily Summary

Daily Weather History Graph

Daily Weather History Graph

Search for Another Location

Airport or City:

Trip Planner

Search our weather history database for the weather conditions in past years. The results will help you decide how hot, cold, wet, or windy it might be!

Date:

Astronomy

Dec. 02, 2013 Rise Set
Actual Time 6:44 AM CST 4:54 PM CST
Civil Twilight 6:17 AM CST 5:21 PM CST
Nautical Twilight 5:47 AM CST 5:52 PM CST
Astronomical Twilight 5:17 AM CST 6:21 PM CST
Moon 6:11 AM CST (12/2) 4:56 PM CST (12/2)
Length of Visible Light 11h 03m
Length of Day
10h 10m
Waning Crescent, 0% of the Moon is Illuminated
Dec 2
Waning Crescent
Dec 2
New
Dec 9
First Quarter
Dec 17
Full
Dec 25
Last Quarter

Hourly Weather History & Observations

Time (CST) Temp. Dew Point Humidity Pressure Visibility Wind Dir Wind Speed Gust Speed Precip Events Conditions
12:54 AM 57.0 °F 48.9 °F 74% 29.96 in 10.0 mi SSE 8.1 mph - N/A   Overcast
1:54 AM 55.9 °F 48.9 °F 77% 29.95 in 10.0 mi South 5.8 mph - N/A   Overcast
2:54 AM 55.0 °F 48.9 °F 80% 29.93 in 10.0 mi SSW 4.6 mph - N/A   Overcast
3:54 AM 55.0 °F 48.0 °F 77% 29.91 in 10.0 mi South 3.5 mph - N/A   Mostly Cloudy
4:54 AM 55.0 °F 48.9 °F 80% 29.90 in 10.0 mi South 6.9 mph - 0.00 in   Overcast
5:54 AM 53.1 °F 48.0 °F 83% 29.89 in 10.0 mi South 5.8 mph - N/A   Mostly Cloudy
6:54 AM 53.1 °F 48.0 °F 83% 29.87 in 10.0 mi South 8.1 mph - N/A   Mostly Cloudy
7:54 AM 55.9 °F 48.9 °F 77% 29.88 in 10.0 mi South 8.1 mph - N/A   Mostly Cloudy
8:54 AM 61.0 °F 48.9 °F 64% 29.86 in 10.0 mi South 9.2 mph - N/A   Mostly Cloudy
9:26 AM 64.4 °F 51.8 °F 64% 29.87 in 10.0 mi South 10.4 mph - N/A   Overcast
9:54 AM 64.9 °F 54.0 °F 68% 29.86 in 10.0 mi SSW 12.7 mph - N/A   Overcast
10:07 AM 66.2 °F 55.4 °F 68% 29.86 in 10.0 mi SSW 13.8 mph 20.7 mph N/A   Mostly Cloudy
10:26 AM 64.4 °F 55.4 °F 73% 29.85 in 10.0 mi South 13.8 mph - N/A   Mostly Cloudy
10:54 AM 66.9 °F 55.0 °F 66% 29.82 in 10.0 mi SSW 12.7 mph - N/A   Mostly Cloudy
11:22 AM 68.0 °F 55.4 °F 64% 29.82 in 10.0 mi SW 11.5 mph - N/A   Mostly Cloudy
11:54 AM 70.0 °F 57.0 °F 63% 29.80 in 10.0 mi SSW 15.0 mph - N/A   Mostly Cloudy
12:08 PM 69.8 °F 57.2 °F 64% 29.80 in 10.0 mi SW 10.4 mph - N/A   Mostly Cloudy
12:15 PM 69.8 °F 57.2 °F 64% 29.79 in 10.0 mi SSW 11.5 mph - N/A   Mostly Cloudy
12:54 PM 70.0 °F 57.9 °F 65% 29.77 in 10.0 mi South 10.4 mph - N/A   Mostly Cloudy
1:54 PM 70.0 °F 57.9 °F 65% 29.73 in 10.0 mi SSW 11.5 mph - N/A   Mostly Cloudy
2:54 PM 69.1 °F 57.9 °F 68% 29.72 in 10.0 mi West 6.9 mph - N/A   Mostly Cloudy
3:54 PM 69.1 °F 59.0 °F 70% 29.73 in 10.0 mi NNW 5.8 mph - 0.00 in   Mostly Cloudy
4:54 PM 63.0 °F 57.9 °F 84% 29.73 in 10.0 mi Calm Calm - N/A   Scattered Clouds
5:54 PM 61.0 °F 57.9 °F 90% 29.73 in 10.0 mi Calm Calm - N/A   Mostly Cloudy
6:50 PM 62.6 °F 59.0 °F 88% 29.74 in 10.0 mi Calm Calm - N/A   Mostly Cloudy
6:54 PM 62.1 °F 59.0 °F 90% 29.74 in 10.0 mi Calm Calm - N/A   Mostly Cloudy
7:54 PM 63.0 °F 57.9 °F 84% 29.76 in 10.0 mi Calm Calm - N/A   Mostly Cloudy
8:54 PM 61.0 °F 57.9 °F 90% 29.76 in 10.0 mi Calm Calm - N/A   Mostly Cloudy
9:54 PM 57.0 °F 55.9 °F 96% 29.76 in 4.0 mi Calm Calm - N/A   Mostly Cloudy
10:02 PM 57.2 °F 57.2 °F 100% 29.77 in 5.0 mi Calm Calm - N/A   Scattered Clouds
10:54 PM 55.9 °F 54.0 °F 93% 29.75 in 7.0 mi South 4.6 mph - N/A   Partly Cloudy
11:06 PM 53.6 °F 51.8 °F 94% 29.76 in 2.0 mi South 3.5 mph - N/A   Clear
11:15 PM 55.4 °F 53.6 °F 94% 29.76 in 1.2 mi South 3.5 mph - N/A   Clear
11:36 PM 53.6 °F 53.6 °F 100% 29.76 in 0.5 mi South 3.5 mph - N/A Fog Fog
11:43 PM 53.6 °F 53.6 °F 100% 29.76 in 0.2 mi Calm Calm - N/A Fog Fog
11:54 PM 54.0 °F 52.0 °F 93% 29.75 in 0.2 mi Calm Calm - N/A Fog Fog